Weather History for York, PA

Change the Weather History Date:

Tuesday, October 16, 2012

  Actual Average Record
Temperature  
Mean Temperature 10 °C -  
Max Temperature 16 °C -17 °C 25 °C (2008)
Min Temperature 3 °C - -2 °C (2006)
Degree Days  
Heating Degree Days 16    
Moisture  
Dew Point 4 °C    
Average Humidity 67    
Maximum Humidity 93    
Minimum Humidity 42    
Precipitation  
Precipitation 0.00 mm - - ()
Sea Level Pressure  
Sea Level Pressure 1012 hPa    
Wind  
Wind Speed 8 km/h (WNW)    
Max Wind Speed 23 km/h    
Max Gust Speed 34 km/h    
Visibility 16 kilometers    
Events      
Averages and records for this station are not official NWS values.
T = Trace of Precipitation, MM = Missing Value Source: NWS Daily Summary

Daily Weather History Graph

Daily Weather History Graph

Search for Another Location

Airport:

Trip Planner

Search our weather history database for the weather conditions in past years. The results will help you decide how hot, cold, wet, or windy it might be!

Date:

Astronomy

Oct. 16, 2012 Rise Set
Actual Time 7:19 AM EDT 6:25 PM EDT
Civil Twilight 6:52 AM EDT 6:53 PM EDT
Nautical Twilight 6:20 AM EDT 7:24 PM EDT
Astronomical Twilight 5:49 AM EDT 7:55 PM EDT
Moon 8:39 AM EDT (10/16) 7:08 PM EDT (10/16)
Length of Visible Light 12h 00m
Length of Day
11h 06m
New Moon, 2% of the Moon is Illuminated
Oct 16
New Moon
Oct 21
First Quarter
Oct 29
Full
Nov 6
Last Quarter
Nov 13
New

Hourly Weather History & Observations

Time (EDT) Temp. Windchill Dew Point Humidity Pressure Visibility Wind Dir Wind Speed Gust Speed Precip Events Conditions
12:53 AM 11.1 °C - 5.0 °C 66% 1009.2 hPa 16.1 km WNW 9.3 km/h / 2.6 m/s - N/A   Clear
1:53 AM 9.4 °C - 4.4 °C 71% 1009.5 hPa 16.1 km WNW 5.6 km/h / 1.5 m/s - N/A   Clear
2:53 AM 7.8 °C 7.1 °C 3.9 °C 76% 1009.4 hPa 16.1 km WNW 5.6 km/h / 1.5 m/s - N/A   Clear
3:53 AM 8.3 °C - 3.9 °C 74% 1009.5 hPa 16.1 km Calm Calm - N/A   Clear
4:53 AM 8.9 °C - 5.0 °C 77% 1010.1 hPa 16.1 km West 9.3 km/h / 2.6 m/s - N/A   Scattered Clouds
5:53 AM 9.4 °C - 4.4 °C 71% 1010.7 hPa 16.1 km WNW 7.4 km/h / 2.1 m/s - N/A   Mostly Cloudy
6:53 AM 9.4 °C - 5.0 °C 74% 1011.0 hPa 16.1 km WNW 9.3 km/h / 2.6 m/s - N/A   Overcast
8:53 AM 11.7 °C - 5.0 °C 64% 1012.3 hPa 16.1 km NW 7.4 km/h / 2.1 m/s - N/A   Scattered Clouds
9:53 AM 12.8 °C - 4.4 °C 57% 1012.8 hPa 16.1 km NW 13.0 km/h / 3.6 m/s 25.9 km/h / 7.2 m/s N/A   Mostly Cloudy
10:53 AM 12.2 °C - 3.9 °C 57% 1012.9 hPa 16.1 km NW 22.2 km/h / 6.2 m/s 33.3 km/h / 9.3 m/s N/A   Overcast
11:53 AM 12.8 °C - 4.4 °C 57% 1013.0 hPa 16.1 km WNW 18.5 km/h / 5.1 m/s 27.8 km/h / 7.7 m/s N/A   Overcast
12:53 PM 12.8 °C - 4.4 °C 57% 1012.7 hPa 16.1 km WNW 14.8 km/h / 4.1 m/s 27.8 km/h / 7.7 m/s N/A   Overcast
1:53 PM 13.9 °C - 3.3 °C 49% 1011.8 hPa 16.1 km NW 18.5 km/h / 5.1 m/s 33.3 km/h / 9.3 m/s N/A   Scattered Clouds
2:53 PM 15.0 °C - 3.3 °C 46% 1011.6 hPa 16.1 km NW 13.0 km/h / 3.6 m/s - N/A   Partly Cloudy
3:53 PM 15.6 °C - 2.8 °C 42% 1011.0 hPa 16.1 km WNW 14.8 km/h / 4.1 m/s - N/A   Partly Cloudy
4:53 PM 15.0 °C - 2.2 °C 42% 1011.0 hPa 16.1 km NW 13.0 km/h / 3.6 m/s - N/A   Clear
5:53 PM 14.4 °C - 2.8 °C 46% 1011.3 hPa 16.1 km Calm Calm - N/A   Clear
6:53 PM 8.9 °C - 3.9 °C 71% 1012.0 hPa 16.1 km Calm Calm - N/A   Clear
7:53 PM 6.7 °C - 3.9 °C 82% 1012.4 hPa 16.1 km Calm Calm - N/A   Clear
8:53 PM 5.0 °C - 3.3 °C 89% 1013.4 hPa 16.1 km Calm Calm - N/A   Clear
9:53 PM 4.4 °C - 3.3 °C 93% 1013.7 hPa 16.1 km Calm Calm - N/A   Clear
10:53 PM 3.9 °C - 2.2 °C 89% 1014.0 hPa 16.1 km Calm Calm - N/A   Clear
11:53 PM 3.3 °C - 1.7 °C 89% 1014.0 hPa 16.1 km Calm Calm - N/A   Clear